Dauntless Aviation
Greetings, Guest! To participate, [sign up for a free account] or [log in]
Airports Europe United Kingdom
EGPY

Dounreay Thurso

UNITED KINGDOM

Airport Info
Edit

Location

Latitude / Longitude: 58°35'3"N / 3°43'31"W
  58°35.052'N / 3°43.518'W
  58.5842 / -3.7253

Runway Information

Runway 04 /22

Dimensions: 3300 x 100 ft.
Surface: U
 
Runway 04
Runway 22
Latitude: 58.579444 58.586944
Longitude: -3.731389 -3.721667
Elevation: 130 ft. 130 ft.
Runway true heading: 33.4 213.4
 
Satellite photo at:
Airport distance calculator
From:
Weather Reports

METAR

EGPC
22.2nm E
EGPC 281450Z 13019KT 5000 BR FEW002 BKN003 13/13 Q1004
EGPA
34.2nm NE
EGPA 281450Z 11017KT 5000 RA SCT005 SCT006 BKN008 14/13 Q1005

TAF

EGPC
22.2nm E
TAF EGPC 281355Z 2815/2824 12017KT 4000 -RADZ BKN004 BECMG 2815/2818 9999 NSW BKN010 BECMG 2818/2821 FEW010
EGPA
34.2nm NE
TAF EGPA 281355Z 2815/2824 12018KT 9999 BKN012 TEMPO 2815/2818 12022G32KT 6000 RA BKN007 PROB40 TEMPO 2815/2824 BKN004
Safelog

 

Dauntless Aviation

© 2007-2014 Dauntless Aviation, all rights reserved
Information provided via PilotNav comes from a variety of official and unofficial data sources. As errors are possible, do not use PilotNav for primary flight planning purposes. Verify any information that you receive via PilotNav with current and canonical charts and other official documents. The material in this database is subject to database copyrights held by Dauntless Aviation and may not be copied without the express permission of Dauntless Aviation - licenses for use of part of all of this data are available for purchase; enquire via the Dauntless Aviation helpdesk. A number of mechanisms and markers exist in the database to protect against and identify infringement / copyright. Automated queries against this website are stictly prohibited, and all activity is logged and analyzed.